www.pogodaiklimat.ru

Погода и климат >> Архив погоды >> Шри Ланка >> Поттувил


ПОГОДА в Поттувиле

  • Прогноз погоды в Поттувиле
  • Монитор погоды в Поттувиле

АРХИВ ПОГОДЫ в Поттувиле

Время (UTC), дата Ветер
(напр.,м/с)
 
Видим.   Явления Облачность Т
(С)
Тd
(С)
f
(%)
Тe
(С)
Тes
(С)
Комфортность P
(гПа)
Po
(гПа)
Тmin
(С)
Tmax
(С)
R
(мм)
R24
(мм)
S
(см)
12 15.01 С 6 20 км 6/5 540 м
[Cu hum Ci fib]
+30.0 +24.1 71 +42 +42 опасность
перегрева
1009.3 1008.9
15 15.01 С 7 20 км 6/0
[Ci sp]
+25.9 +23.9 89 +36 +36 очень
душно
1012.2 1011.8
18 15.01 С 7 20 км 6/0
[Ci sp]
+25.9 +23.9 89 +36 +36 очень
душно
1012.2 1011.8
00 16.01 СЗ 4 20 км 6/3 540 м
[Cu hum Ci fib]
+24.8 +24.3 97 +34 +34 очень
душно
1010.7 1010.3 1
03 16.01 СЗ 4 15 км слаб. ливневой дождь 9/5 500 м
[Cu hum Ac As]
+24.9 +24.5 98 +35 +36 очень
душно
1013.0 1012.6 +24.3 11
06 16.01 С 5 20 км слаб. дождь 10/4 540 м
[Cu hum Ac As]
+26.2 +25.3 95 +38 +40 очень
душно
1012.7 1012.3 1
09 16.01 С 11 20 км {дождь} 8/4 540 м
[Cu hum Ac As Ci fib]
+28.5 +23.9 76 +39 +39 очень
душно
1010.0 1009.6 2
12 16.01 С 6 20 км 6/0 300 м
[Ac trans Ci fib]
+26.8 +23.3 81 +36 +36 очень
душно
1010.1 1009.7 +28.5
15 16.01 СЗ 4 20 км 9/0
[Cs]
+25.2 +23.1 88 +34 +34 очень
душно
1012.0 1011.6
00 17.01 СЗ 4 20 км 5/0
[Ci fib]
+23.3 +22.1 93 +32 +32 очень
душно
1010.5 1010.1
03 17.01 С 6 20 км 3/0
[Ci fib]
+25.3 +21.7 80 +32 +35 очень
душно
1012.3 1011.9 +22.7
09 17.01 С 10 20 км 4/4 540 м
[Cu hum]
+29.7 +21.7 62 +38 +38 очень
душно
1009.2 1008.8
15 17.01 С 5 20 км 9/0
[Cs]
+25.2 +22.5 85 +33 +33 очень
душно
1012.1 1011.7
00 18.01 СЗ 4 20 км 5/0
[Ci fib]
+22.3 +20.7 91 +29 +29 очень
душно
1009.8 1009.4
03 18.01 С 7 20 км 8/0
[Ac As Ci fib]
+24.0 +21.1 84 +30 +31 очень
душно
1012.6 1012.2 +21.9
06 18.01 С 7 20 км 8/0
[Ac As Ci fib]
+24.0 +21.1 84 +30 +32 очень
душно
1012.6 1012.2 +21.9
09 18.01 Ю 11 <50 м 5/0 300 м
[Ci fib]
+29.2 +20.6 60 +36 +36 очень
душно
1009.5 1009.1
12 18.01 С 5 20 км 5/0
[Ci fib]
+26.8 +21.3 72 +34 +34 очень
душно
1010.1 1009.7 +29.8
15 18.01 С 5 20 км 4/0
[Ci fib]
+24.3 +20.7 80 +30 +30 очень
душно
1011.6 1011.2
00 19.01 СЗ 4 20 км 5/0
[Ci fib]
+21.3 +19.9 92 +26 +26 душно 1010.8 1010.4
03 19.01 СЗ 7 20 км 8/0
[Ci fib]
+24.7 +21.3 81 +31 +33 очень
душно
1013.5 1013.1 +21.0
06 19.01 С 7 20 км 6/3 540 м
[Cu hum Ci fib]
+28.8 +22.1 67 +37 +40 очень
душно
1012.7 1012.3
09 19.01 СЗ 6 20 км 6/4 540 м
[Cu hum Ci fib]
+30.1 +22.5 64 +39 +42 очень
душно
1009.8 1009.4
12 19.01 С 9 20 км 6/0
[Ci fib]
+27.8 +22.1 71 +36 +36 очень
душно
1010.1 1009.7 +30.9
15 19.01 С 7 20 км 5/0
[Ci fib]
+24.8 +22.7 88 +33 +33 очень
душно
1012.7 1012.3
03 20.01 СЗ 3 20 км 8/6 540 м
[Cu hum Ci fib]
+25.0 +22.6 87 +33 +35 очень
душно
1013.7 1013.3 +22.8
06 20.01 С 9 20 км 9/8 540 м
[Cu hum Ci fib]
+29.0 +22.2 67 +38 +38 очень
душно
1013.6 1013.2
09 20.01 СВ 12 20 км 9/8 540 м
[Cu hum Ci fib]
+29.6 +23.2 69 +40 +40 очень
душно
1011.0 1010.6
03 21.01 СЗ 5 20 км 9/8 540 м
[Cu hum Ci fib]
+24.0 +22.5 91 +31 +32 очень
душно
1013.8 1013.4 +22.5
06 21.01 С 10 20 км 9/8 540 м
[Cu hum Ci fib]
+29.8 +22.8 66 +39 +40 очень
душно
1013.4 1013.0
09 21.01 СВ 7 20 км 8/4 540 м
[Cb cap Ci fib]
+29.8 +23.7 70 +41 +42 опасность
перегрева
1010.4 1010.0
12 21.01 С 6 20 км 8/6 540 м
[Cu hum Ci fib]
+28.4 +22.5 70 +37 +37 очень
душно
1010.3 1009.9 +30.6
00 22.01 З 4 20 км 9/1 540 м
[Cu hum Ci fib]
+22.8 +22.2 96 +31 +31 очень
душно
1010.7 1010.3
03 22.01 С 7 20 км 9/5 540 м
[Cu hum Ci fib]
+24.6 +22.8 90 +33 +33 очень
душно
1013.2 1012.8 +22.1
06 22.01 С 4 20 км 9/4 540 м
[Cu hum Ci fib]
+28.8 +22.6 69 +38 +44 очень
душно
1012.9 1012.5
09 22.01 С 7 20 км 9/3 540 м
[Cu hum Cs]
+29.2 +23.7 72 +40 +42 очень
душно
1010.9 1010.5

 

Местоположение метеостанции Поттувил (Шри Ланка): широта 6.88 долгота 81.83 высота над уровнем моря 4 м.

В архиве по умолчанию представлена погода в Поттувиле за последнюю неделю. Архивные данные за месяц целиком и за предыдущие месяцы, начиная с января 2011 года, Вы можете получить, выбрав интересующий диапазон дат из раскрывающегося списка и нажав кнопку "Ввод!".


*Определитесь, кто Вы:
робот инопланетянин человек

Внимание! Время в таблицах - всемирное. Для получения местного времени необходимо прибавить поправку, которая равна 6 ч.

Смотрите также архив погоды в соседних городах и на ближайших метеорологических станциях:

Погода в Бадулла (Шри Ланка) (87 км)
Погода в Дияталаве (Шри Ланка) (94 км)
Погода в Баттикалоа (Шри Ланка) (95 км)
Погода в Хамбантоте (Шри Ланка) (115 км)
Погода в Нувара Элия (Шри Ланка) (117 км)
Погода в Канди (Шри Ланка) (142 км)
Погода в Ратнапуре (Шри Ланка) (160 км)
Погода в Курунегала (Шри Ланка) (174 км)
Погода в Тринкомали (Шри Ланка) (200 км)
Погода в Галле (Шри Ланка) (201 км)

Пояснения к столбцам:

Ветер - указаны скорость ветра в м/с - средняя за 10 мин, порывы в срок и между сроками (в фигурных скобках) и направление, откуда дует ветер: С - северный, СВ - северо-восточный, В - восточный, ЮВ - юго-восточный, Ю - южный, ЮЗ - юго-западный, З - западный, СЗ - северо-западный.
Видимость - горизонтальная дальность видимости в метрах или километрах. При видимости от 1 до 10 км при отсутствии осадков обычно наблюдается дымка, при ухудшении видимости до 1 км и менее - туман. В сухую погоду видимость может ухудшаться дымом, пылью или мглою.
Явления - указаны атмосферные явления, наблюдавшиеся в срок или в последний час перед сроком; фигурными скобками обозначены явления, наблюдавшиеся между сроками (за 1-3 часа до срока); квадратными скобками обозначены град или гололедные отложения с указанием их диаметра в мм.
Облачность - указаны через наклонную черту общая и нижняя облачность в баллах и высота нижней границы облаков в метрах; квадратными скобками обозначены формы облаков: Ci - перистые, Cs - перисто-слоистые, Cc - перисто-кучевые, Ac - высококучевые, As - высокослоистые, Sc - слоисто-кучевые, Ns - слоисто-дождевые, Cu - кучевые, Cb - кучево-дождевые. Подробнее классификацию облаков см. в Атласе облаков (PDF).
T - Температура воздуха - температура, измеренная на высоте 2 м над землей.
Td - Температура точки росы - температура, при понижении до которой содержащийся в воздухе водяной пар достигнет насыщения.
f - Относительная влажность воздуха - влажноcть воздуха, измеренная на высоте 2 м над землей.
Te - Эффективная температура - температура, которую ощущает одетый по сезону человек в тени. Характеристика душности погоды. При расчете учитывается влияние влажности воздуха и скорости ветра на теплоощущения человека.
Tes - Эффективная температура на солнце - температура, которую ощущает человек, с поправкой на солнечный нагрев. Характеристика знойности погоды. Зависит от высоты солнца над горизонтом, облачности и скорости ветра. Ночью, в пасмурную погоду, а также при ветре 12 м/с и более поправка равна нулю.
P - Атмосферное давление - приведенное к уровню моря атмосферное давление.
Po - Атмосферное давление - измеренное на уровне метеостанции атмосферное давление.
Tmin - Минимальная температура - минимум температуры воздуха на высоте 2 м над землей.
Tmax - Максимальная температура - максимум температуры воздуха на высоте 2 м над землей.
R - Количество осадков - Количество выпавших осадков за период времени, мм. При наведении курсора мыши на число - период времени, за который выпало указанное количество осадков.
R24 - Количество осадков - Количество выпавших осадков за 24 часа, мм.
S - Снежный покров - Высота снежного покрова, см. При наведении курсора мыши на число - состояние снежного покрова и степень покрытия местности в баллах.